﻿_id,日時,平均風速(m/s),平均風向,最大瞬間風速(m/s),最大風速時風向,気温(℃),湿度(%),10分間移動積算雨量(mm),1時間移動積算雨量(mm),日雨量(mm),累計雨量(mm)
1,2021-05-17T00:00:00,3.7,南,9.6,南,24.6,81.3,0,0,5,6
2,2021-05-17T00:01:00,3.7,南,9.6,南,24.5,81.4,0,0,0,6
3,2021-05-17T00:02:00,3.9,南,9.6,南,24.5,81.6,0,0,0,6
4,2021-05-17T00:03:00,4,南,9.6,南,24.6,81.7,0,0,0,6
5,2021-05-17T00:04:00,4.1,南,9.6,南,24.6,81.6,0,0,0,6
6,2021-05-17T00:05:00,3.9,南,8.4,南南西,24.6,81.5,0,0,0,6
7,2021-05-17T00:06:00,4,南,8.4,南南西,24.6,81.3,0,0,0,6
8,2021-05-17T00:07:00,4,南南西,8.4,南南西,24.6,81.3,0,0,0,6
9,2021-05-17T00:08:00,4.1,南南西,8.4,南南西,24.6,81.2,0,0,0,6
10,2021-05-17T00:09:00,4.1,南南西,8.4,南南西,24.6,81.1,0,0,0,6
11,2021-05-17T00:10:00,4.3,南南西,10.6,南,24.7,81.1,0,0,0,6
12,2021-05-17T00:11:00,4.4,南南西,10.6,南,24.7,81,0,0,0,6
13,2021-05-17T00:12:00,4.4,南,10.6,南,24.7,81,0,0,0,6
14,2021-05-17T00:13:00,4.3,南,10.6,南,24.6,81,0,0,0,6
15,2021-05-17T00:14:00,4.2,南,10.6,南,24.6,81.1,0,0,0,6
16,2021-05-17T00:15:00,4.2,南,10.6,南,24.6,81.2,0,0,0,6
17,2021-05-17T00:16:00,4.2,南,10.6,南,24.6,81.3,0,0,0,6
18,2021-05-17T00:17:00,4,南,10.6,南,24.6,81.3,0,0,0,6
19,2021-05-17T00:18:00,4,南,10.6,南,24.6,81.5,0,0,0,6
20,2021-05-17T00:19:00,3.9,南,10.6,南,24.5,81.6,0,0,0,6
21,2021-05-17T00:20:00,3.9,南,10.4,南東,24.5,81.8,0,0,0,6
22,2021-05-17T00:21:00,3.9,南,10.4,南東,24.5,81.7,0,0,0,6
23,2021-05-17T00:22:00,4,南,10.4,南東,24.6,81.7,0,0,0,6
24,2021-05-17T00:23:00,4.2,南,10.4,南東,24.7,81.5,0,0,0,6
25,2021-05-17T00:24:00,4.3,南,10.4,南東,24.7,81.1,0,0,0,6
26,2021-05-17T00:25:00,4.4,南,10.4,南東,24.7,81,0,0,0,6
27,2021-05-17T00:26:00,4.3,南,10.4,南東,24.7,81,0,0,0,6
28,2021-05-17T00:27:00,4.4,南,10.4,南東,24.6,81.1,0,0,0,6
29,2021-05-17T00:28:00,4.3,南,10.4,南東,24.6,81.2,0,0,0,6
30,2021-05-17T00:29:00,4.6,南,10.4,南東,24.6,81.4,0,0,0,6
31,2021-05-17T00:30:00,4.5,南,9.6,南南西,24.7,81.1,0,0,0,6
32,2021-05-17T00:31:00,4.6,南,9.9,南,24.8,80.9,0,0,0,6
33,2021-05-17T00:32:00,4.7,南南西,10.8,南南西,24.7,80.7,0,0,0,6
34,2021-05-17T00:33:00,4.7,南南西,13,南南東,24.7,80.8,0,0,0,6
35,2021-05-17T00:34:00,4.5,南,13,南南東,24.7,80.6,0,0,0,6
36,2021-05-17T00:35:00,4.4,南南西,13,南南東,24.7,80.7,0,0,0,6
37,2021-05-17T00:36:00,4.3,南南西,13,南南東,24.7,80.9,0,0,0,6
38,2021-05-17T00:37:00,4.3,南南西,13,南南東,24.6,81.2,0,0,0,6
39,2021-05-17T00:38:00,4.3,南南西,13,南南東,24.6,81.5,0,0,0,6
40,2021-05-17T00:39:00,4.2,南南西,13,南南東,24.6,81.7,0,0,0,6
41,2021-05-17T00:40:00,4.3,南南西,13,南南東,24.6,81.7,0,0,0,6
42,2021-05-17T00:41:00,4.2,南南西,13,南南東,24.6,81.5,0,0,0,6
43,2021-05-17T00:42:00,4,南南西,13,南南東,24.5,81.7,0,0,0,6
44,2021-05-17T00:43:00,3.8,南南西,9,南南西,24.5,82.1,0,0,0,6
45,2021-05-17T00:44:00,3.9,南南西,9,南南西,24.5,82.1,0,0,0,6
46,2021-05-17T00:45:00,4,南南西,9.2,南,24.5,82.3,0,0,0,6
47,2021-05-17T00:46:00,4.3,南南西,9.2,南,24.5,82.6,0,0,0,6
48,2021-05-17T00:47:00,4.4,南南西,9.2,南,24.4,82.8,0,0,0,6
49,2021-05-17T00:48:00,4.5,南南西,9.2,南,24.3,83.1,0,0,0,6
50,2021-05-17T00:49:00,4.4,南南西,9.2,南,24.3,83.4,0,0,0,6
51,2021-05-17T00:50:00,4.2,南南西,9.2,南,24.2,83.8,0,0,0,6
52,2021-05-17T00:51:00,4.4,南南西,9.5,南,24.3,84,0,0,0,6
53,2021-05-17T00:52:00,4.5,南南西,9.5,南,24.3,83.9,0,0,0,6
54,2021-05-17T00:53:00,4.4,南南西,9.5,南,24.3,84,0,0,0,6
55,2021-05-17T00:54:00,4.3,南南西,9.5,南,24.3,84.1,0,0,0,6
56,2021-05-17T00:55:00,4.4,南南西,9.5,南,24.3,84,0,0,0,6
57,2021-05-17T00:56:00,4.3,南南西,9.5,南,24.3,83.9,0,0,0,6
58,2021-05-17T00:57:00,4.3,南,9.5,南,24.3,83.7,0,0,0,6
59,2021-05-17T00:58:00,4.3,南,9.5,南,24.3,83.7,0,0,0,6
60,2021-05-17T00:59:00,4.2,南,9.5,南,24.3,83.7,0,0,0,6
61,2021-05-17T01:00:00,4.2,南,9.5,南,24.3,84,0,0,0,6
62,2021-05-17T01:01:00,4.1,南,9.1,南南西,24.2,84,0,0,0,6
63,2021-05-17T01:02:00,4.1,南,8.8,南南西,24.2,84.1,0,0,0,6
64,2021-05-17T01:03:00,4,南,8.8,南南西,24.3,84.1,0,0,0,6
65,2021-05-17T01:04:00,4,南,8.8,南南西,24.2,84.1,0,0,0,6
66,2021-05-17T01:05:00,3.8,南,8.4,南,24.2,84.1,0,0,0,6
67,2021-05-17T01:06:00,3.8,南,9.7,南,24.2,84.2,0,0,0,6
68,2021-05-17T01:07:00,3.9,南,9.7,南,24.4,84.1,0,0,0,6
69,2021-05-17T01:08:00,4,南,9.7,南,24.4,83.6,0,0,0,6
70,2021-05-17T01:09:00,4.3,南南西,12,南西,24.4,83.5,0,0,0,6
71,2021-05-17T01:10:00,4.4,南,12,南西,24.4,83.3,0,0,0,6
72,2021-05-17T01:11:00,4.3,南,12,南西,24.4,83.1,0,0,0,6
73,2021-05-17T01:12:00,4.4,南南西,12,南西,24.4,83.3,0,0,0,6
74,2021-05-17T01:13:00,4.5,南南西,12,南西,24.5,83.1,0,0,0,6
75,2021-05-17T01:14:00,4.5,南南西,12,南西,24.5,82.8,0,0,0,6
76,2021-05-17T01:15:00,4.6,南南西,12,南西,24.5,82.9,0,0,0,6
77,2021-05-17T01:16:00,4.6,南南西,12,南西,24.5,82.8,0,0,0,6
78,2021-05-17T01:17:00,4.4,南南西,12,南西,24.5,82.7,0,0,0,6
79,2021-05-17T01:18:00,4.2,南,12,南西,24.5,82.6,0,0,0,6
80,2021-05-17T01:19:00,4.1,南,9.7,南東,24.5,82.7,0,0,0,6
81,2021-05-17T01:20:00,4,南,8.8,南南東,24.5,82.7,0,0,0,6
82,2021-05-17T01:21:00,4.3,南,10,南,24.6,82.5,0,0,0,6
83,2021-05-17T01:22:00,4.1,南,10,南,24.6,82.3,0,0,0,6
84,2021-05-17T01:23:00,4.2,南,10,南,24.6,82.2,0,0,0,6
85,2021-05-17T01:24:00,4.4,南,10,南,24.6,82.2,0,0,0,6
86,2021-05-17T01:25:00,4.6,南,10,南,24.6,82.3,0,0,0,6
87,2021-05-17T01:26:00,4.6,南,10,南,24.6,82.3,0,0,0,6
88,2021-05-17T01:27:00,4.8,南,11.8,南東,24.5,82.3,0,0,0,6
89,2021-05-17T01:28:00,4.9,南,11.8,南東,24.5,82.5,0,0,0,6
90,2021-05-17T01:29:00,4.9,南,11.8,南東,24.5,82.5,0,0,0,6
91,2021-05-17T01:30:00,5,南,11.8,南東,24.4,82.8,0,0,0,6
92,2021-05-17T01:31:00,4.8,南,11.8,南東,24.4,83,0,0,0,6
93,2021-05-17T01:32:00,4.9,南,11.8,南東,24.4,83.1,0,0,0,6
94,2021-05-17T01:33:00,4.9,南,11.8,南東,24.4,83.1,0,0,0,6
95,2021-05-17T01:34:00,4.7,南,11.8,南東,24.4,83.1,0,0,0,6
96,2021-05-17T01:35:00,4.5,南,11.8,南東,24.4,83.2,0,0,0,6
97,2021-05-17T01:36:00,4.6,南,11.8,南東,24.3,83.5,0,0,0,6
98,2021-05-17T01:37:00,4.5,南,11.1,南,24.4,83.7,0,0,0,6
99,2021-05-17T01:38:00,4.5,南,11.1,南,24.3,83.7,0,0,0,6
100,2021-05-17T01:39:00,4.4,南,11.1,南,24.2,83.9,0,0,0,6
101,2021-05-17T01:40:00,4.6,南,11.1,南,24.2,84.3,0,0,0,6
102,2021-05-17T01:41:00,4.6,南,11.1,南,24.2,84.4,0,0,0,6
103,2021-05-17T01:42:00,4.8,南,11.1,南,24.1,84.6,0,0,0,6
104,2021-05-17T01:43:00,4.7,南,11.1,南,24,85.1,0,0,0,6
105,2021-05-17T01:44:00,4.7,南,11.1,南,24,85.5,0,0,0,6
106,2021-05-17T01:45:00,4.6,南,11.1,南,23.9,85.8,0,0,0,6
107,2021-05-17T01:46:00,4.7,南,12.8,南南東,23.9,86.4,0,0,0,6
108,2021-05-17T01:47:00,4.6,南,12.8,南南東,23.9,86.6,0,0,0,6
109,2021-05-17T01:48:00,4.6,南,12.8,南南東,23.9,86.8,0,0,0,6
110,2021-05-17T01:49:00,4.7,南,12.8,南南東,23.9,86.9,0,0,0,6
111,2021-05-17T01:50:00,4.5,南,12.8,南南東,23.8,87,0,0,0,6
112,2021-05-17T01:51:00,4.5,南,12.8,南南東,23.8,87.4,0,0,0,6
113,2021-05-17T01:52:00,4.4,南,12.8,南南東,23.7,87.6,0,0,0,6
114,2021-05-17T01:53:00,4.5,南,12.8,南南東,23.8,87.8,0,0,0,6
115,2021-05-17T01:54:00,4.7,南,12.8,南南東,23.8,87.8,0,0,0,6
116,2021-05-17T01:55:00,4.8,南,12.8,南南東,23.8,87.7,0,0,0,6
117,2021-05-17T01:56:00,4.7,南,9.6,南,23.8,87.5,0.5,0.5,0.5,6.5
118,2021-05-17T01:57:00,4.8,南,11,南南東,23.8,87.7,0.5,0.5,0.5,6.5
119,2021-05-17T01:58:00,4.9,南,11,南南東,23.8,87.7,0.5,0.5,0.5,6.5
120,2021-05-17T01:59:00,4.8,南,11,南南東,23.8,87.4,0.5,0.5,0.5,6.5
121,2021-05-17T02:00:00,4.8,南,11,南南東,23.8,87.4,0.5,0.5,0.5,6.5
122,2021-05-17T02:01:00,4.9,南,11,南南東,23.7,87.5,0.5,0.5,0.5,6.5
123,2021-05-17T02:02:00,5,南,11,南南東,23.8,87.7,0.5,0.5,0.5,6.5
124,2021-05-17T02:03:00,4.8,南,11,南南東,23.8,87.8,0.5,0.5,0.5,6.5
125,2021-05-17T02:04:00,4.6,南,11,南南東,23.7,87.7,0.5,0.5,0.5,6.5
126,2021-05-17T02:05:00,4.6,南,11,南南東,23.7,88,0.5,0.5,0.5,6.5
127,2021-05-17T02:06:00,4.6,南,11,南南東,23.7,88.2,0,0.5,0.5,6.5
128,2021-05-17T02:07:00,4.3,南,10,南南東,23.7,88.4,0,0.5,0.5,6.5
129,2021-05-17T02:08:00,4.2,南,10,南南東,23.7,88.4,0,0.5,0.5,6.5
130,2021-05-17T02:09:00,4.3,南,10,南南東,23.7,88.5,0,0.5,0.5,6.5
131,2021-05-17T02:10:00,4.2,南,10,南南東,23.6,88.5,0,0.5,0.5,6.5
132,2021-05-17T02:11:00,4.1,南,9.4,南南東,23.7,88.5,0,0.5,0.5,6.5
133,2021-05-17T02:12:00,4.1,南,9.4,南南東,23.7,88.3,0,0.5,0.5,6.5
134,2021-05-17T02:13:00,4.1,南,9.4,南南東,23.6,88.4,0,0.5,0.5,6.5
135,2021-05-17T02:14:00,4.1,南,9.4,南南東,23.6,88.5,0,0.5,0.5,6.5
136,2021-05-17T02:15:00,4.2,南,9.4,南南東,23.6,88.8,0,0.5,0.5,6.5
137,2021-05-17T02:16:00,4.1,南,9.4,南南東,23.6,88.6,0.5,1,1,7
138,2021-05-17T02:17:00,4,南,9.4,南南東,23.5,88.7,0.5,1,1,7
139,2021-05-17T02:18:00,3.9,南,9.4,南南東,23.5,88.9,0.5,1,1,7
140,2021-05-17T02:19:00,3.8,南,9.3,南,23.5,89,0.5,1,1,7
141,2021-05-17T02:20:00,3.8,南,9.3,南,23.5,89.1,0.5,1,1,7
142,2021-05-17T02:21:00,3.6,南,9.3,南,23.5,89.4,0.5,1,1,7
143,2021-05-17T02:22:00,3.6,南,9.3,南,23.4,89.3,0.5,1,1,7
144,2021-05-17T02:23:00,3.7,南,7.9,南南東,23.5,89.4,0.5,1,1,7
145,2021-05-17T02:24:00,3.7,南,7.9,南南東,23.6,89.3,0.5,1,1,7
146,2021-05-17T02:25:00,3.4,南,7.5,南,23.5,89.1,0.5,1,1,7
147,2021-05-17T02:26:00,3.4,南,7.5,南,23.5,89.1,0,1,1,7
148,2021-05-17T02:27:00,3.4,南,7.5,南,23.5,89.1,0,1,1,7
149,2021-05-17T02:28:00,3.3,南,7.5,南,23.5,89.1,0,1,1,7
150,2021-05-17T02:29:00,3.2,南,7.5,南,23.5,89.1,0,1,1,7
151,2021-05-17T02:30:00,3.2,南,7.5,南,23.4,89.3,0,1,1,7
152,2021-05-17T02:31:00,3.5,南,11.1,南南西,23.5,89.5,0,1,1,7
153,2021-05-17T02:32:00,3.5,南,11.1,南南西,23.6,89.1,0,1,1,7
154,2021-05-17T02:33:00,3.4,南,11.1,南南西,23.6,88.5,0,1,1,7
155,2021-05-17T02:34:00,3.4,南,11.1,南南西,23.6,88.4,0,1,1,7
156,2021-05-17T02:35:00,3.6,南,11.1,南南西,23.7,88.3,0,1,1,7
157,2021-05-17T02:36:00,3.6,南,11.1,南南西,23.7,88.2,0,1,1,7
158,2021-05-17T02:37:00,3.5,南,11.1,南南西,23.7,87.9,0,1,1,7
159,2021-05-17T02:38:00,3.8,南,11.1,南南西,23.6,87.8,0,1,1,7
160,2021-05-17T02:39:00,3.9,南,11.1,南南西,23.7,87.9,0,1,1,7
161,2021-05-17T02:40:00,3.9,南,11.1,南南西,23.8,87.4,0,1,1,7
162,2021-05-17T02:41:00,3.6,南,9,南,23.8,87.2,0,1,1,7
163,2021-05-17T02:42:00,3.5,南,8.3,南南東,23.7,87.1,0,1,1,7
164,2021-05-17T02:43:00,3.5,南,8.3,南南東,23.7,87.3,0,1,1,7
165,2021-05-17T02:44:00,3.4,南,7.7,南西,23.8,87.2,0,1,1,7
166,2021-05-17T02:45:00,3.3,南,9.4,南,23.8,86.9,0,1,1,7
167,2021-05-17T02:46:00,3.3,南,9.4,南,23.7,86.8,0,1,1,7
168,2021-05-17T02:47:00,3.3,南,9.4,南,23.7,87,0,1,1,7
169,2021-05-17T02:48:00,3.3,南,9.4,南,23.7,86.9,0,1,1,7
170,2021-05-17T02:49:00,3.3,南,9.4,南,23.7,87,0,1,1,7
171,2021-05-17T02:50:00,3.4,南,9.4,南,23.7,87.1,0,1,1,7
172,2021-05-17T02:51:00,3.5,南,9.4,南,23.7,87.2,0,1,1,7
173,2021-05-17T02:52:00,3.4,南,9.4,南,23.7,87.2,0,1,1,7
174,2021-05-17T02:53:00,3.4,南,9.4,南,23.6,87.4,0,1,1,7
175,2021-05-17T02:54:00,3.4,南,9.4,南,23.7,87.5,0,1,1,7
176,2021-05-17T02:55:00,3.4,南,9.3,南南東,23.7,87.4,0,1,1,7
177,2021-05-17T02:56:00,3.4,南,9.3,南南東,23.7,87.5,0,0.5,1,7
178,2021-05-17T02:57:00,3.5,南,9.3,南南東,23.7,87.5,0,0.5,1,7
179,2021-05-17T02:58:00,3.5,南,9.3,南南東,23.7,87.4,0,0.5,1,7
180,2021-05-17T02:59:00,3.4,南,9.3,南南東,23.7,87.2,0,0.5,1,7
181,2021-05-17T03:00:00,3.3,南,9.3,南南東,23.6,87.4,0,0.5,1,7
182,2021-05-17T03:01:00,3.3,南,9.3,南南東,23.6,87.7,0,0.5,1,7
183,2021-05-17T03:02:00,3.5,南,9.3,南南東,23.6,87.8,0,0.5,1,7
184,2021-05-17T03:03:00,3.6,南,9.9,南南東,23.6,87.9,0,0.5,1,7
185,2021-05-17T03:04:00,3.6,南,9.9,南南東,23.7,87.9,0,0.5,1,7
186,2021-05-17T03:05:00,3.6,南,9.9,南南東,23.6,87.7,0,0.5,1,7
187,2021-05-17T03:06:00,3.8,南,9.9,南南東,23.6,87.8,0,0.5,1,7
188,2021-05-17T03:07:00,3.7,南,9.9,南南東,23.6,87.8,0,0.5,1,7
189,2021-05-17T03:08:00,3.6,南,9.9,南南東,23.5,87.9,0,0.5,1,7
190,2021-05-17T03:09:00,3.5,南,9.9,南南東,23.5,88.1,0,0.5,1,7
191,2021-05-17T03:10:00,3.4,南,9.9,南南東,23.5,88.4,0,0.5,1,7
192,2021-05-17T03:11:00,3.4,南,9.9,南南東,23.4,88.6,0,0.5,1,7
193,2021-05-17T03:12:00,3.4,南,9.9,南南東,23.5,88.8,0,0.5,1,7
194,2021-05-17T03:13:00,3.2,南,7.9,南東,23.5,88.8,0,0.5,1,7
195,2021-05-17T03:14:00,3.1,南,7.4,南南東,23.5,88.8,0,0.5,1,7
196,2021-05-17T03:15:00,3,南,7.4,南南東,23.4,88.7,0,0.5,1,7
197,2021-05-17T03:16:00,2.7,南,5.9,南南東,23.3,88.8,0,0,1,7
198,2021-05-17T03:17:00,2.6,南,5.4,南,23.3,89.2,0,0,1,7
199,2021-05-17T03:18:00,2.6,南,5.4,南,23.3,89.5,0,0,1,7
200,2021-05-17T03:19:00,2.6,南,5.4,南,23.4,89.7,0.5,0.5,1.5,7.5
201,2021-05-17T03:20:00,2.5,南,5.4,南,23.3,89.8,0.5,0.5,1.5,7.5
202,2021-05-17T03:21:00,2.6,南,6,南南東,23.3,89.9,0.5,0.5,1.5,7.5
203,2021-05-17T03:22:00,2.5,南,6,南南東,23.3,90.2,0.5,0.5,1.5,7.5
204,2021-05-17T03:23:00,2.4,南,6,南南東,23.3,90.1,0.5,0.5,1.5,7.5
205,2021-05-17T03:24:00,2.4,南,6,南南東,23.2,90.1,0.5,0.5,1.5,7.5
206,2021-05-17T03:25:00,2.4,南,6,南南東,23.2,90.4,0.5,0.5,1.5,7.5
207,2021-05-17T03:26:00,2.4,南,6,南南東,23.2,90.6,0.5,0.5,1.5,7.5
208,2021-05-17T03:27:00,2.4,南,6,南南東,23.2,90.6,0.5,0.5,1.5,7.5
209,2021-05-17T03:28:00,2.4,南,6,南南東,23.2,90.7,0.5,0.5,1.5,7.5
210,2021-05-17T03:29:00,2.4,南,6,南南東,23.3,90.9,0,0.5,1.5,7.5
211,2021-05-17T03:30:00,2.5,南南東,6,南南東,23.3,90.8,0.5,1,2,8
212,2021-05-17T03:31:00,2.5,南南東,5.3,南南東,23.3,90.7,0.5,1,2,8
213,2021-05-17T03:32:00,2.5,南南東,5.7,南,23.4,90.6,0.5,1,2,8
214,2021-05-17T03:33:00,2.5,南南東,5.7,南,23.3,90.4,0.5,1,2,8
215,2021-05-17T03:34:00,2.4,南,5.7,南,23.2,90.2,0.5,1,2,8
216,2021-05-17T03:35:00,2.4,南,5.7,南,23.2,90.5,0.5,1,2,8
217,2021-05-17T03:36:00,2.4,南南東,5.7,南,23.2,90.6,0.5,1,2,8
218,2021-05-17T03:37:00,2.3,南南東,5.7,南,23.2,90.9,0.5,1,2,8
219,2021-05-17T03:38:00,2.2,南南東,5.7,南,23.1,91,0.5,1,2,8
220,2021-05-17T03:39:00,2.2,南,5.7,南,23.1,91.3,0.5,1,2,8
221,2021-05-17T03:40:00,2.2,南,5.7,南,23.1,91.4,0,1,2,8
222,2021-05-17T03:41:00,2.1,南,5.7,南,23.2,91.5,0.5,1.5,2.5,8.5
223,2021-05-17T03:42:00,2,南,4.6,南南東,23.1,91.5,0.5,1.5,2.5,8.5
224,2021-05-17T03:43:00,1.9,南南東,4.6,南南東,23.1,91.6,0.5,1.5,2.5,8.5
225,2021-05-17T03:44:00,2,南南東,4.6,南南東,23.1,91.6,0.5,1.5,2.5,8.5
226,2021-05-17T03:45:00,2,南南東,4.6,南南東,23.1,91.6,0.5,1.5,2.5,8.5
227,2021-05-17T03:46:00,1.9,南南東,4.6,南南東,23.1,91.7,0.5,1.5,2.5,8.5
228,2021-05-17T03:47:00,1.9,南,4.6,南南東,23,91.8,0.5,1.5,2.5,8.5
229,2021-05-17T03:48:00,1.9,南,4.6,南南東,23,92,0.5,1.5,2.5,8.5
230,2021-05-17T03:49:00,1.9,南南東,4.6,南南東,23,92,0.5,1.5,2.5,8.5
231,2021-05-17T03:50:00,2.1,南南東,7.7,南南東,23.1,92.1,0.5,1.5,2.5,8.5
232,2021-05-17T03:51:00,2.1,南南東,7.7,南南東,23.1,91.9,0,1.5,2.5,8.5
233,2021-05-17T03:52:00,2.2,南南東,7.7,南南東,23.2,91.9,0,1.5,2.5,8.5
234,2021-05-17T03:53:00,2.3,南南東,7.7,南南東,23.2,91.7,0,1.5,2.5,8.5
235,2021-05-17T03:54:00,2.3,南,7.7,南南東,23.2,91.5,0,1.5,2.5,8.5
236,2021-05-17T03:55:00,2.5,南南東,7.7,南南東,23.2,91.4,0,1.5,2.5,8.5
237,2021-05-17T03:56:00,2.6,南南東,7.7,南南東,23.2,91.2,0,1.5,2.5,8.5
238,2021-05-17T03:57:00,2.7,南南東,7.7,南南東,23.2,91.2,0,1.5,2.5,8.5
239,2021-05-17T03:58:00,3,南南東,7.7,南南東,23.2,91.2,0,1.5,2.5,8.5
240,2021-05-17T03:59:00,2.9,南,7.7,南南東,23.2,91.1,0,1.5,2.5,8.5
241,2021-05-17T04:00:00,2.8,南,7.1,南南東,23.1,91.1,0,1.5,2.5,8.5
242,2021-05-17T04:01:00,2.9,南,7.6,南南東,23.1,91.2,0.5,2,3,9
243,2021-05-17T04:02:00,3,南南東,7.6,南南東,23,91.4,0.5,2,3,9
244,2021-05-17T04:03:00,2.9,南南東,7.6,南南東,23,91.6,0.5,2,3,9
245,2021-05-17T04:04:00,3,南南東,7.6,南南東,23,91.8,0.5,2,3,9
246,2021-05-17T04:05:00,2.9,南南東,7.6,南南東,23,92,1,2.5,3.5,9.5
247,2021-05-17T04:06:00,2.9,南南東,7.6,南南東,22.9,92.1,1,2.5,3.5,9.5
248,2021-05-17T04:07:00,2.9,南南東,7.6,南南東,22.9,92.4,1.5,3,4,10
249,2021-05-17T04:08:00,2.6,南南東,7.6,南南東,22.9,92.5,1.5,3,4,10
250,2021-05-17T04:09:00,2.5,南,7.6,南南東,22.8,92.7,1.5,3,4,10
251,2021-05-17T04:10:00,2.6,南,7.6,南南東,22.8,92.9,2,3.5,4.5,10.5
252,2021-05-17T04:11:00,2.4,南,5.8,南東,22.8,93.1,1.5,3.5,4.5,10.5
253,2021-05-17T04:12:00,2.3,南,5.8,南東,22.8,93.2,1.5,3.5,4.5,10.5
254,2021-05-17T04:13:00,2.3,南,5.8,南東,22.8,93.3,1.5,3.5,4.5,10.5
255,2021-05-17T04:14:00,2.2,南,5.8,南東,22.8,93.3,1.5,3.5,4.5,10.5
256,2021-05-17T04:15:00,2.2,南,5.8,南東,22.8,93.4,1,3.5,4.5,10.5
257,2021-05-17T04:16:00,2.1,南,5.8,南東,22.8,93.4,1,3.5,4.5,10.5
258,2021-05-17T04:17:00,2.1,南,5.8,南東,22.8,93.4,0.5,3.5,4.5,10.5
259,2021-05-17T04:18:00,2.1,南,5.8,南東,22.9,93.5,0.5,3.5,4.5,10.5
260,2021-05-17T04:19:00,2.2,南,5.8,南東,22.9,93.5,0.5,3,4.5,10.5
261,2021-05-17T04:20:00,2.2,南,5.8,南東,22.9,93.4,0,3,4.5,10.5
262,2021-05-17T04:21:00,2.2,南,5,南東,23,93.4,0,3,4.5,10.5
263,2021-05-17T04:22:00,2.1,南,5,南東,23,93,0,3,4.5,10.5
264,2021-05-17T04:23:00,2.2,南,5.8,南南東,23,92.7,0,3,4.5,10.5
265,2021-05-17T04:24:00,2.1,南,5.8,南南東,23,92.6,0,3,4.5,10.5
266,2021-05-17T04:25:00,2,南,5.8,南南東,23,92.2,0,3,4.5,10.5
267,2021-05-17T04:26:00,2,南,5.8,南南東,23,92.1,0,3,4.5,10.5
268,2021-05-17T04:27:00,2,南,5.8,南南東,22.9,92,0,3,4.5,10.5
269,2021-05-17T04:28:00,2.1,南,5.8,南南東,23,92.2,0,3,4.5,10.5
270,2021-05-17T04:29:00,2.1,南,5.8,南南東,22.9,92.1,0,3,4.5,10.5
271,2021-05-17T04:30:00,2,南,5.8,南南東,22.9,92.1,0,2.5,4.5,10.5
272,2021-05-17T04:31:00,1.9,南,5.8,南南東,23,92.2,0,2.5,4.5,10.5
273,2021-05-17T04:32:00,1.9,南,5.8,南南東,23,92.2,0,2.5,4.5,10.5
274,2021-05-17T04:33:00,1.9,南,5.3,南南東,23,92.2,0,2.5,4.5,10.5
275,2021-05-17T04:34:00,1.9,南,5.3,南南東,23,92.1,0,2.5,4.5,10.5
276,2021-05-17T04:35:00,1.9,南,5.3,南南東,23,91.8,0,2.5,4.5,10.5
277,2021-05-17T04:36:00,2,南,5.3,南南東,23,91.8,0,2.5,4.5,10.5
278,2021-05-17T04:37:00,1.9,南,4.9,南,23,91.9,0,2.5,4.5,10.5
279,2021-05-17T04:38:00,2,南,5.4,南南東,23,91.7,0,2.5,4.5,10.5
280,2021-05-17T04:39:00,2,南,5.4,南南東,23,91.6,0,2.5,4.5,10.5
281,2021-05-17T04:40:00,2,南,5.4,南南東,23,91.6,0,2.5,4.5,10.5
282,2021-05-17T04:41:00,2.1,南,5.4,南南東,23,91.5,0,2,4.5,10.5
283,2021-05-17T04:42:00,2.2,南,5.4,南南東,23,91.4,0,2,4.5,10.5
284,2021-05-17T04:43:00,2.2,南,5.4,南南東,23,91.4,0,2,4.5,10.5
285,2021-05-17T04:44:00,2.2,南,5.4,南南東,23.1,91.3,0,2,4.5,10.5
286,2021-05-17T04:45:00,2.2,南,5.4,南南東,23,91.1,0,2,4.5,10.5
287,2021-05-17T04:46:00,2.2,南,5.4,南南東,22.9,91.2,0.5,2.5,5,11
288,2021-05-17T04:47:00,2.3,南,5.4,南南東,22.9,91.5,0.5,2.5,5,11
289,2021-05-17T04:48:00,2.2,南南東,4.8,南南東,22.8,91.6,1,3,5.5,11.5
290,2021-05-17T04:49:00,2.2,南南東,4.8,南南東,22.8,91.9,1,3,5.5,11.5
291,2021-05-17T04:50:00,2.3,南南東,4.8,南南東,22.8,92.2,1,3,5.5,11.5
292,2021-05-17T04:51:00,2.1,南南東,4.8,南南東,22.7,92.4,1,3,5.5,11.5
293,2021-05-17T04:52:00,2.1,南南東,4.8,南南東,22.7,92.7,1,3,5.5,11.5
294,2021-05-17T04:53:00,2,南南東,4.8,南南東,22.7,93,1,3,5.5,11.5
295,2021-05-17T04:54:00,2,南南東,4.8,南南東,22.7,93.1,1,3,5.5,11.5
296,2021-05-17T04:55:00,2.2,南南東,5.8,南,22.8,93.2,1,3,5.5,11.5
297,2021-05-17T04:56:00,2.2,南南東,5.8,南,22.8,93.2,1,3.5,6,12
298,2021-05-17T04:57:00,2.2,南,5.8,南,22.8,93.1,1,3.5,6,12
299,2021-05-17T04:58:00,2.3,南,5.8,南,22.7,92.9,1,4,6.5,12.5
300,2021-05-17T04:59:00,2.3,南,5.8,南,22.6,93,1,4,6.5,12.5
301,2021-05-17T05:00:00,2.3,南,5.8,南,22.6,93.3,1,4,6.5,12.5
302,2021-05-17T05:01:00,2.4,南,5.8,南,22.6,93.5,1.5,4,7,13
303,2021-05-17T05:02:00,2.5,南,5.8,南,22.6,93.6,1.5,4,7,13
304,2021-05-17T05:03:00,2.5,南,5.8,南,22.6,93.8,1.5,4,7,13
305,2021-05-17T05:04:00,2.5,南南東,5.8,南,22.6,93.7,1.5,4,7,13
306,2021-05-17T05:05:00,2.2,南南東,5.1,南,22.5,93.8,1.5,3.5,7,13
307,2021-05-17T05:06:00,2.2,南,5.1,南,22.6,94.1,1.5,4,7.5,13.5
308,2021-05-17T05:07:00,2.1,南南東,4.9,南東,22.6,94.3,1.5,3.5,7.5,13.5
309,2021-05-17T05:08:00,2.1,南,4.9,南東,22.6,94.2,1,3.5,7.5,13.5
310,2021-05-17T05:09:00,2,南南東,4.9,南東,22.7,94.2,1,3.5,7.5,13.5
311,2021-05-17T05:10:00,2,南南東,4.9,南東,22.6,94.1,1.5,3.5,8,14
312,2021-05-17T05:11:00,2,南,4.9,南東,22.6,94,1.5,4,8.5,14.5
313,2021-05-17T05:12:00,2,南,5.4,南南東,22.6,94,1.5,4,8.5,14.5
314,2021-05-17T05:13:00,2.1,南,5.4,南南東,22.6,93.9,1.5,4,8.5,14.5
315,2021-05-17T05:14:00,2.2,南,5.4,南南東,22.6,93.9,1.5,4,8.5,14.5
316,2021-05-17T05:15:00,2.3,南,5.4,南南東,22.6,94.1,1.5,4,8.5,14.5
317,2021-05-17T05:16:00,2.3,南,5.4,南南東,22.7,94,1,4,8.5,14.5
318,2021-05-17T05:17:00,2.2,南,5.4,南南東,22.7,93.9,1.5,4.5,9,15
319,2021-05-17T05:18:00,2.2,南,5.4,南南東,22.7,93.7,1.5,4.5,9,15
320,2021-05-17T05:19:00,2.3,南,6.9,南南東,22.7,93.6,1.5,4.5,9,15
321,2021-05-17T05:20:00,2.4,南,6.9,南南東,22.7,93.6,1,4.5,9,15
322,2021-05-17T05:21:00,2.4,南,6.9,南南東,22.7,93.4,0.5,4.5,9,15
323,2021-05-17T05:22:00,2.3,南,6.9,南南東,22.6,93.3,1,5,9.5,15.5
324,2021-05-17T05:23:00,2.3,南,6.9,南南東,22.6,93.3,1,5,9.5,15.5
325,2021-05-17T05:24:00,2.3,南,6.9,南南東,22.6,93.6,1.5,5.5,10,16
326,2021-05-17T05:25:00,2.3,南,6.9,南南東,22.5,93.7,1.5,5.5,10,16
327,2021-05-17T05:26:00,2.3,南,6.9,南南東,22.6,93.9,2,6,10.5,16.5
328,2021-05-17T05:27:00,2.4,南,6.9,南南東,22.5,93.9,1.5,6,10.5,16.5
329,2021-05-17T05:28:00,2.4,南,6.9,南南東,22.5,93.9,2,6.5,11,17
330,2021-05-17T05:29:00,2.3,南,5.4,南,22.5,94.1,2,6.5,11,17
331,2021-05-17T05:30:00,2.1,南,5,南東,22.5,94.2,2,6.5,11,17
332,2021-05-17T05:31:00,2,南,5,南東,22.4,94.3,2.5,7,11.5,17.5
333,2021-05-17T05:32:00,1.9,南南東,5,南東,22.4,94.5,2,7,11.5,17.5
334,2021-05-17T05:33:00,1.8,南南東,5,南東,22.4,94.5,2.5,7.5,12,18
335,2021-05-17T05:34:00,1.7,南南東,5,南東,22.4,94.7,2,7.5,12,18
336,2021-05-17T05:35:00,1.7,南南東,5,南東,22.4,94.9,2,7.5,12,18
337,2021-05-17T05:36:00,1.7,南南東,5,南東,22.4,95.1,2,8,12.5,18.5
338,2021-05-17T05:37:00,1.7,南南東,5,南東,22.4,95,2,8,12.5,18.5
339,2021-05-17T05:38:00,1.7,南南東,4.7,南南東,22.4,95,1.5,8,12.5,18.5
340,2021-05-17T05:39:00,1.8,南南東,5.5,南東,22.4,95,1.5,8,12.5,18.5
341,2021-05-17T05:40:00,1.8,南南東,5.5,南東,22.4,95,1.5,8,12.5,18.5
342,2021-05-17T05:41:00,1.8,南南東,5.5,南東,22.5,95.1,1,8,12.5,18.5
343,2021-05-17T05:42:00,2,南南東,6,南東,22.5,94.9,1,8,12.5,18.5
344,2021-05-17T05:43:00,2.1,南南東,6,南東,22.5,94.9,0.5,8,12.5,18.5
345,2021-05-17T05:44:00,2.2,南南東,6,南東,22.6,94.7,0.5,8,12.5,18.5
346,2021-05-17T05:45:00,2.1,南南東,6,南東,22.5,94.4,0.5,8,12.5,18.5
347,2021-05-17T05:46:00,2.1,南南東,6,南東,22.5,94.1,0,7.5,12.5,18.5
348,2021-05-17T05:47:00,2.1,南南東,6,南東,22.5,94.2,0,7.5,12.5,18.5
349,2021-05-17T05:48:00,2,南南東,6,南東,22.6,94.2,0,7,12.5,18.5
350,2021-05-17T05:49:00,1.9,南南東,6,南東,22.6,94,0.5,7.5,13,19
351,2021-05-17T05:50:00,1.9,南南東,6,南東,22.5,93.8,0.5,7.5,13,19
352,2021-05-17T05:51:00,2,南南東,6,南東,22.6,93.8,0.5,7.5,13,19
353,2021-05-17T05:52:00,1.9,南南東,5.1,南南東,22.6,93.8,0.5,7.5,13,19
354,2021-05-17T05:53:00,1.8,南南東,5.1,南南東,22.6,93.7,0.5,7.5,13,19
355,2021-05-17T05:54:00,1.8,南南東,5.1,南南東,22.6,93.7,0.5,7.5,13,19
356,2021-05-17T05:55:00,1.9,南南東,5.1,南南東,22.6,93.7,0.5,7.5,13,19
357,2021-05-17T05:56:00,2,南南東,5.1,南南東,22.6,93.7,0.5,7,13,19
358,2021-05-17T05:57:00,1.9,南南東,4.8,南南東,22.6,93.4,0.5,7,13,19
359,2021-05-17T05:58:00,2.1,南南東,6.4,南,22.6,93.4,0.5,6.5,13,19
360,2021-05-17T05:59:00,2.2,南南東,6.9,南東,22.7,93.3,0,6.5,13,19
361,2021-05-17T06:00:00,2.3,南南東,6.9,南東,22.7,93.1,0,6.5,13,19
362,2021-05-17T06:01:00,2.3,南南東,6.9,南東,22.7,92.9,0,6,13,19
363,2021-05-17T06:02:00,2.3,南南東,6.9,南東,22.7,92.7,0,6,13,19
364,2021-05-17T06:03:00,2.3,南南東,6.9,南東,22.7,92.5,0,6,13,19
365,2021-05-17T06:04:00,2.4,南南東,6.9,南東,22.7,92.6,0,6,13,19
366,2021-05-17T06:05:00,2.4,南南東,6.9,南東,22.8,92.6,0,6,13,19
367,2021-05-17T06:06:00,2.4,南南東,6.9,南東,22.9,92.3,0,5.5,13,19
368,2021-05-17T06:07:00,2.6,南南東,7,南南東,22.9,91.9,0,5.5,13,19
369,2021-05-17T06:08:00,2.7,南南東,7.7,南南東,23,91.5,0.5,6,13.5,19.5
370,2021-05-17T06:09:00,2.8,南南東,7.7,南南東,23.1,90.9,0.5,6,13.5,19.5
371,2021-05-17T06:10:00,2.7,南南東,7.8,南東,23,90.2,0.5,5.5,13.5,19.5
372,2021-05-17T06:11:00,2.9,南南東,7.8,南東,23,89.9,0.5,5,13.5,19.5
373,2021-05-17T06:12:00,3.1,南南東,7.8,南東,23,90,0.5,5,13.5,19.5
374,2021-05-17T06:13:00,3.3,南南東,7.8,南東,23,89.9,0.5,5,13.5,19.5
375,2021-05-17T06:14:00,3.3,南南東,7.8,南東,23,89.8,0.5,5,13.5,19.5
376,2021-05-17T06:15:00,3.3,南南東,7.8,南東,23,89.5,0.5,5,13.5,19.5
377,2021-05-17T06:16:00,3.4,南南東,7.8,南東,23,89.5,0.5,5,13.5,19.5
378,2021-05-17T06:17:00,3.2,南南東,7.8,南東,23,89.4,0.5,4.5,13.5,19.5
379,2021-05-17T06:18:00,3.3,南南東,7.8,南東,23,89.4,0,4.5,13.5,19.5
380,2021-05-17T06:19:00,3.3,南南東,7.8,南東,23,89.4,0,4.5,13.5,19.5
381,2021-05-17T06:20:00,3.3,南南東,7.6,南南東,23.2,89.3,0,4.5,13.5,19.5
382,2021-05-17T06:21:00,3.2,南,7.6,南南東,23.1,88.8,0,4.5,13.5,19.5
383,2021-05-17T06:22:00,3.1,南,7.6,南南東,23.1,88.7,0,4,13.5,19.5
384,2021-05-17T06:23:00,3.1,南,7.6,南南東,23.1,88.9,0,4,13.5,19.5
385,2021-05-17T06:24:00,3.1,南南東,7.6,南南東,23.2,89,0,3.5,13.5,19.5
386,2021-05-17T06:25:00,3.1,南南東,7.6,南南東,23.2,88.7,0,3.5,13.5,19.5
387,2021-05-17T06:26:00,3.2,南南東,7.4,南南東,23.1,88.4,0,3,13.5,19.5
388,2021-05-17T06:27:00,3.3,南南東,7.4,南南東,23.1,88.5,0,3,13.5,19.5
389,2021-05-17T06:28:00,3.1,南南東,6.4,南南東,23.2,88.6,0,2.5,13.5,19.5
390,2021-05-17T06:29:00,3.1,南南東,7.5,南東,23.2,88.5,0,2.5,13.5,19.5
391,2021-05-17T06:30:00,3.2,南南東,7.5,南東,23.3,88.2,0,2.5,13.5,19.5
392,2021-05-17T06:31:00,3.3,南南東,7.5,南東,23.3,87.9,0,2,13.5,19.5
393,2021-05-17T06:32:00,3.3,南南東,7.5,南東,23.2,87.7,0,2,13.5,19.5
394,2021-05-17T06:33:00,3.1,南南東,7.5,南東,23.2,87.7,0,1.5,13.5,19.5
395,2021-05-17T06:34:00,3.1,南南東,7.5,南東,23.1,88,0,1.5,13.5,19.5
396,2021-05-17T06:35:00,3,南南東,7.5,南東,23.1,88.3,0,1.5,13.5,19.5
397,2021-05-17T06:36:00,2.9,南南東,7.5,南東,23.1,88.7,0,1,13.5,19.5
398,2021-05-17T06:37:00,2.8,南,7.5,南東,23.1,88.6,0,1,13.5,19.5
399,2021-05-17T06:38:00,2.8,南,7.5,南東,23.2,88.8,0,1,13.5,19.5
400,2021-05-17T06:39:00,2.6,南,7.3,南南東,23.1,88.6,0,1,13.5,19.5
401,2021-05-17T06:40:00,2.5,南,5.3,南南東,23.1,89,0.5,1.5,14,20
402,2021-05-17T06:41:00,2.3,南,5.3,南南東,23,89.1,0.5,1.5,14,20
403,2021-05-17T06:42:00,2.3,南,5.3,南南東,22.9,89.4,0.5,1.5,14,20
404,2021-05-17T06:43:00,2.3,南,5.3,南南東,22.9,89.7,0.5,1.5,14,20
405,2021-05-17T06:44:00,2.3,南,4.8,南南東,22.9,90.2,0.5,1.5,14,20
406,2021-05-17T06:45:00,2.2,南,4.6,南南西,22.9,90.3,0.5,1.5,14,20
407,2021-05-17T06:46:00,2.2,南,4.6,南南西,22.9,90.5,0.5,1.5,14,20
408,2021-05-17T06:47:00,2.3,南,7.4,南東,22.9,90.6,0.5,1.5,14,20